Location: ČR
(50.0000°N, 15.0000°E)
Time: 09:04:44
(UTC+00:00)

Vanguard 3 - Visible Passes

Search period start: 21 October 2021 00:00
Search period end: 31 October 2021 00:00
Orbit: 510 x 3259 km, 33.3° (Epoch: 20 October)

Date Brightness Start Highest point End Pass type
(mag) Time Alt. Az. Time Alt. Az. Time Alt. Az.
21 Oct 9.6 17:19:16 10° SW 17:25:55 28° SSE 17:33:34 15° ESE visible
21 Oct 9.8 19:28:58 10° WSW 19:37:54 34° S 19:38:04 34° S visible
21 Oct 10.8 21:40:57 10° WSW 21:42:35 14° WSW 21:42:35 14° WSW visible
22 Oct 9.6 18:15:42 10° SW 18:23:09 32° S 18:27:41 25° SE visible
22 Oct 10.2 20:26:27 10° WSW 20:32:12 26° SW 20:32:12 26° SW visible
23 Oct 9.6 17:02:57 10° SW 17:08:55 26° SSE 17:17:21 11° ESE visible
23 Oct 9.8 19:12:41 10° WSW 19:20:42 31° S 19:21:52 30° S visible
23 Oct 10.7 21:24:50 10° WSW 21:26:23 14° WSW 21:26:23 14° WSW visible
24 Oct 9.6 17:59:28 10° SW 18:06:08 29° S 18:11:33 21° SE visible
24 Oct 10.2 20:10:17 10° WSW 20:16:04 24° SSW 20:16:04 24° SSW visible
25 Oct 9.5 16:46:44 10° SW 16:52:02 24° SSE 16:59:55 10° ESE visible
25 Oct 9.8 18:56:32 10° WSW 19:03:37 27° S 19:05:48 25° S visible
25 Oct 10.7 21:09:06 10° WSW 21:10:20 12° SW 21:10:20 12° SW visible
26 Oct 9.6 17:43:20 10° SW 17:49:13 26° S 17:55:35 15° SE visible
26 Oct 10.2 19:54:21 10° WSW 20:00:07 21° SSW 20:00:07 21° SSW visible
27 Oct 9.5 16:30:36 10° SW 16:35:14 22° SSE 16:41:54 10° SE visible
27 Oct 9.9 18:40:32 10° SW 18:46:39 23° S 18:49:57 20° SSE visible
27 Oct 10.7 20:54:01 10° SW 20:54:29 11° SW 20:54:29 11° SW visible
28 Oct 9.7 17:27:18 10° SW 17:32:24 22° S 17:39:47 10° SE visible
28 Oct 10.3 19:38:44 10° SW 19:44:13 17° SSW 19:44:22 17° SSW visible
29 Oct 9.5 16:14:34 10° SW 16:18:31 19° S 16:23:55 10° SE visible
29 Oct 10.0 18:24:44 10° SW 18:29:47 18° S 18:34:20 14° SSE visible
30 Oct 9.7 17:11:26 10° SW 17:15:39 18° S 17:21:25 10° SE visible
30 Oct 10.4 19:23:49 10° SW 19:27:17 12° SSW 19:28:56 12° S visible
